This demonstration page uses our WeatherBlox Daily Observations layout. Learn more.

Left ArrowRight Arrow

Hourly Observations for August 26, 2016

Temp ( °F °C ) Dew Point ( °F °C ) Humidity (%) Winds ( mph kmh ) Pressure ( in mb ) Visibility ( mi km ) Precip ( " mm )
12:15 am 00:15 Clear 79 26 77 25 94 94 SW 9 15 30.03 1017 10 16 0.00 0.00
12:35 am 00:35 Clear 79 26 77 25 94 94 SSW 13 20 30.03 1017 10 16 0.00 0.00
12:55 am 00:55 Clear 79 26 77 25 94 94 SW 5 7 30.03 1017 10 16 0.00 0.00
1:15 am 01:15 Clear 79 26 77 25 94 94 SW 12 19 30.03 1017 10 16 0.00 0.00
1:35 am 01:35 Clear 77 25 77 25 100 100 SW 6 9 30.03 1017 10 16 0.00 0.00
1:55 am 01:55 Clear 77 25 77 25 100 100 SSW 9 15 30.03 1017 10 16 0.00 0.00
2:15 am 02:15 Clear 77 25 77 25 100 100 SSW 8 13 30.03 1017 10 16 0.00 0.00
2:35 am 02:35 Clear 77 25 77 25 100 100 SSW 7 11 30.03 1017 10 16 0.00 0.00
2:55 am 02:55 Clear 77 25 77 25 100 100 WSW 3 6 30.03 1017 10 16 0.00 0.00
3:15 am 03:15 Clear 77 25 77 25 100 100 SW 6 9 30.03 1017 10 16 0.00 0.00
3:35 am 03:35 Clear 77 25 77 25 100 100 WSW 6 9 30.03 1017 10 16 0.00 0.00
3:55 am 03:55 Clear 77 25 77 25 100 100 W 5 7 30.03 1017 10 16 0.00 0.00
4:15 am 04:15 Clear 77 25 77 25 100 100 SSW 8 13 30.03 1017 7 11 0.00 0.00
4:35 am 04:35 Clear 77 25 77 25 100 100 SSW 7 11 30.03 1017 10 16 0.00 0.00
4:55 am 04:55 Clear 77 25 77 25 100 100 SW 9 15 30.03 1017 10 16 0.00 0.00
5:15 am 05:15 Clear 77 25 77 25 100 100 SSW 10 17 30.06 1018 10 16 0.00 0.00
5:35 am 05:35 Clear 77 25 77 25 100 100 SSW 6 9 30.06 1018 10 16 0.00 0.00
5:55 am 05:55 Partly Cloudy 75 24 75 24 100 100 Calm 30.06 1018 7 11 0.00 0.00
6:15 am 06:15 Mostly Cloudy 75 24 75 24 100 100 W 3 6 30.06 1018 7 11 0.00 0.00
6:35 am 06:35 Partly Cloudy with Mist and Fog 73 23 73 23 100 100 W 8 13 30.06 1018 5 8 0.00 0.00
6:55 am 06:55 Sunny 75 24 75 24 100 100 W 5 7 30.09 1019 7 11 0.00 0.00
7:15 am 07:15 Sunny 77 25 77 25 100 100 W 7 11 30.09 1019 10 16 0.00 0.00
7:35 am 07:35 Sunny 79 26 77 25 94 94 W 8 13 30.09 1019 10 16 0.00 0.00
7:55 am 07:55 Sunny 81 27 77 25 89 89 W 8 13 30.09 1019 10 16 0.00 0.00
8:15 am 08:15 Sunny 82 28 77 25 84 84 WNW 7 11 30.09 1019 10 16 0.00 0.00
8:35 am 08:35 Sunny 82 28 77 25 84 84 WNW 9 15 30.09 1019 10 16 0.00 0.00
8:55 am 08:55 Sunny 86 30 77 25 75 75 NW 6 9 30.09 1019 10 16 0.00 0.00
9:15 am 09:15 Sunny 86 30 77 25 75 75 WNW 10 17 30.09 1019 10 16 0.00 0.00
9:35 am 09:35 Sunny 86 30 73 23 66 66 NNW 10 17 30.09 1019 10 16 0.00 0.00
9:55 am 09:55 Sunny 88 31 75 24 66 66 NNW 10 17 30.09 1019 10 16 0.00 0.00
10:15 am 10:15 Sunny 88 31 75 24 66 66 WNW 14 22 30.09 1019 10 16 0.00 0.00
10:35 am 10:35 Sunny 88 31 73 23 62 62 NW 10 17 30.09 1019 10 16 0.00 0.00
10:55 am 10:55 Partly Cloudy 88 31 73 23 62 62 WNW 14 22 30.09 1019 10 16 0.00 0.00
11:15 am 11:15 Partly Cloudy 88 31 73 23 62 62 NW 14 22 30.09 1019 10 16 0.00 0.00
11:35 am 11:35 Partly Cloudy 88 31 73 23 62 62 NNW 10 17 30.09 1019 10 16 0.00 0.00
11:55 am 11:55 Sunny 90 32 73 23 59 59 NNW 10 17 30.06 1018 10 16 0.00 0.00
12:15 pm 12:15 Sunny 90 32 73 23 59 59 NW 7 11 30.06 1018 10 16 0.00 0.00
12:35 pm 12:35 Sunny 90 32 73 23 59 59 N 5 7 30.06 1018 10 16 0.00 0.00
12:55 pm 12:55 Partly Cloudy 90 32 73 23 59 59 NNW 5 7 30.06 1018 10 16 0.00 0.00
1:15 pm 13:15 Partly Cloudy 91 33 73 23 56 56 NNW 5 7 30.06 1018 10 16 0.00 0.00
1:35 pm 13:35 Mostly Cloudy 90 32 73 23 59 59 N 7 11 30.06 1018 10 16 0.00 0.00
1:55 pm 13:55 Mostly Cloudy 91 33 73 23 56 56 NNW 5 7 30.06 1018 10 16 0.00 0.00
2:15 pm 14:15 Partly Cloudy with Nearby Thunderstorms 91 33 73 23 56 56 N 5 7 30.06 1018 10 16 0.00 0.00
2:35 pm 14:35 Mostly Cloudy 91 33 73 23 56 56 NNW 7 11 30.03 1017 10 16 0.00 0.00
2:55 pm 14:55 Mostly Cloudy 91 33 73 23 56 56 N 6 9 30.03 1017 10 16 0.00 0.00
3:15 pm 15:15 Partly Cloudy 91 33 73 23 56 56 N 7 11 30.03 1017 10 16 0.00 0.00
3:35 pm 15:35 Mostly Cloudy 93 34 73 23 53 53 NNW 3 6 30.03 1017 10 16 0.00 0.00
3:55 pm 15:55 Partly Cloudy 91 33 72 22 52 52 NNW 9 15 30.03 1017 10 16 0.00 0.00
4:15 pm 16:15 Sunny 93 34 72 22 49 49 N 7 11 30.03 1017 10 16 0.00 0.00
4:35 pm 16:35 Sunny 93 34 72 22 49 49 NNW 5 7 30.03 1017 10 16 0.00 0.00
4:55 pm 16:55 Sunny 93 34 72 22 49 49 NNW 7 11 30.03 1017 10 16 0.00 0.00
5:15 pm 17:15 Sunny 93 34 72 22 49 49 NNW 5 7 30.03 1017 10 16 0.00 0.00
5:35 pm 17:35 Sunny 93 34 72 22 49 49 N 3 6 30.03 1017 10 16 0.00 0.00
5:55 pm 17:55 Sunny 93 34 72 22 49 49 NNW 5 7 30.03 1017 10 16 0.00 0.00
6:15 pm 18:15 Sunny 91 33 72 22 52 52 N 7 11 30.03 1017 10 16 0.00 0.00
6:35 pm 18:35 Sunny 91 33 72 22 52 52 NW 3 6 30.03 1017 10 16 0.00 0.00
6:55 pm 18:55 Sunny 91 33 72 22 52 52 N 3 6 30.03 1017 10 16 0.00 0.00
7:15 pm 19:15 Sunny 91 33 72 22 52 52 Calm 30.03 1017 10 16 0.00 0.00
7:35 pm 19:35 Sunny 90 32 73 23 59 59 Calm 30.03 1017 10 16 0.00 0.00
7:55 pm 19:55 Clear 88 31 73 23 62 62 Calm 30.03 1017 10 16 0.00 0.00
8:15 pm 20:15 Clear 86 30 73 23 66 66 Calm 30.06 1018 10 16 0.00 0.00
8:35 pm 20:35 Clear 84 29 73 23 70 70 Calm 30.06 1018 10 16 0.00 0.00
8:55 pm 20:55 Clear 82 28 77 25 84 84 Calm 30.09 1019 10 16 0.00 0.00
9:15 pm 21:15 Clear 81 27 77 25 89 89 Calm 30.09 1019 10 16 0.00 0.00
9:35 pm 21:35 Clear 81 27 77 25 89 89 Calm 30.09 1019 10 16 0.00 0.00
9:55 pm 21:55 Clear 81 27 77 25 89 89 N 5 7 30.09 1019 10 16 0.00 0.00
10:15 pm 22:15 Clear 82 28 77 25 84 84 NNW 3 6 30.09 1019 10 16 0.00 0.00
10:35 pm 22:35 Clear 81 27 75 24 84 84 NNW 3 6 30.12 1020 10 16 0.00 0.00
10:55 pm 22:55 Clear 81 27 73 23 79 79 NNW 3 6 30.12 1020 10 16 0.00 0.00
11:15 pm 23:15 Clear 81 27 75 24 84 84 NNW 3 6 30.12 1020 10 16 0.00 0.00
11:35 pm 23:35 Clear 79 26 73 23 84 84 N 3 6 30.12 1020 10 16 0.00 0.00
11:55 pm 23:55 Clear 81 27 73 23 79 79 N 3 6 30.12 1020 10 16 0.00 0.00

Powered by AerisWeather